Fort Huachuca, AZ

6:27 AM MST on February 24, 2017 (GMT -0700)
Sierra Vista Municipal-Libby Army Air Field

Weather History for KFHU - November, 2012

Change the Weather History Date:

Wednesday, November 21, 2012

  Actual Average Record
Temperature  
Mean Temperature 64 °F -  
Max Temperature 77 °F 65 °F 78 °F (1996)
Min Temperature 51 °F 43 °F 29 °F (1985)
Degree Days  
Heating Degree Days 1    
Growing Degree Days 14 (Base 50)    
Moisture  
Dew Point 34 °F    
Average Humidity 38    
Maximum Humidity 58    
Minimum Humidity 19    
Precipitation  
Precipitation 0.00 in - - ()
Sea Level Pressure  
Sea Level Pressure 30.02 in    
Wind  
Wind Speed 4 mph (WSW)    
Max Wind Speed 15 mph    
Max Gust Speed 22 mph    
Visibility 10 miles    
Events      
Averages and records for this station are not official NWS values.
T = Trace of Precipitation, MM = Missing Value Source: NWS Daily Summary

Daily Weather History Graph

Daily Weather History Graph

Search for Another Location

Airport or City:

Trip Planner

Search our weather history database for the weather conditions in past years. The results will help you decide how hot, cold, wet, or windy it might be!

Date:

Astronomy

Nov. 21, 2012 Rise Set
Actual Time 6:55 AM MST 5:19 PM MST
Civil Twilight 6:28 AM MST 5:45 PM MST
Nautical Twilight 5:59 AM MST 6:15 PM MST
Astronomical Twilight 5:30 AM MST 6:44 PM MST
Moon 1:17 PM MST (11/21) 12:40 AM MST (11/21)
Length of Visible Light 11h 16m
Length of Day
10h 24m
Waxing Gibbous, 62% of the Moon is Illuminated
Nov 21
Waxing Gibbous
Nov 28
Full
Dec 6
Last Quarter
Dec 13
New
Dec 19
First Quarter

Hourly Weather History & Observations

Time (MST) Temp. Dew Point Humidity Pressure Visibility Wind Dir Wind Speed Gust Speed Precip Events Conditions
12:55 AM 57.2 °F 35.6 °F 44% 30.02 in 10.0 mi Calm Calm - N/A   Overcast
1:55 AM 55.4 °F 39.2 °F 54% 30.02 in 10.0 mi Calm Calm - N/A   Mostly Cloudy
2:55 AM 55.4 °F 37.4 °F 51% 30.02 in 10.0 mi SSE 8.1 mph - N/A   Mostly Cloudy
3:55 AM 57.2 °F 35.6 °F 44% 30.01 in 10.0 mi Calm Calm - N/A   Scattered Clouds
4:55 AM 53.6 °F 35.6 °F 51% 30.01 in 10.0 mi Calm Calm - N/A   Mostly Cloudy
5:55 AM 53.6 °F 35.6 °F 51% 30.02 in 10.0 mi Calm Calm - N/A   Mostly Cloudy
6:55 AM 51.8 °F 37.4 °F 58% 30.06 in 10.0 mi WSW 4.6 mph - N/A   Mostly Cloudy
7:55 AM 51.8 °F 37.4 °F 58% 30.08 in 10.0 mi South 4.6 mph - N/A   Mostly Cloudy
8:55 AM 62.6 °F 37.4 °F 39% 30.07 in 10.0 mi Variable 4.6 mph - N/A   Scattered Clouds
9:55 AM 64.4 °F 37.4 °F 37% 30.07 in 10.0 mi ESE 8.1 mph - N/A   Scattered Clouds
10:55 AM 66.2 °F 37.4 °F 35% 30.05 in 10.0 mi Variable 2.3 mph - N/A   Scattered Clouds
11:55 AM 69.8 °F 37.4 °F 31% 30.02 in 10.0 mi Variable 4.6 mph - N/A   Mostly Cloudy
12:55 PM 71.6 °F 33.8 °F 25% 29.98 in 10.0 mi Variable 1.2 mph - N/A   Mostly Cloudy
1:55 PM 75.2 °F 30.2 °F 19% 29.96 in 10.0 mi SSW 11.5 mph 21.9 mph N/A   Mostly Cloudy
2:55 PM 77.0 °F 32.0 °F 19% 29.95 in 10.0 mi West 13.8 mph - N/A   Mostly Cloudy
3:55 PM 75.2 °F 30.2 °F 19% 29.95 in 10.0 mi West 15.0 mph - N/A   Mostly Cloudy
4:55 PM 71.6 °F 30.2 °F 22% 29.96 in 10.0 mi West 10.4 mph - N/A   Scattered Clouds
5:55 PM 64.4 °F 30.2 °F 28% 30.00 in 10.0 mi West 10.4 mph - N/A   Partly Cloudy
6:55 PM 62.6 °F 32.0 °F 32% 30.03 in 10.0 mi WSW 9.2 mph - N/A   Clear
7:55 PM 60.8 °F 33.8 °F 36% 30.04 in 10.0 mi WSW 12.7 mph - N/A   Clear
8:55 PM 60.8 °F 33.8 °F 36% 30.02 in 10.0 mi West 10.4 mph - N/A   Clear
9:55 PM 57.2 °F 33.8 °F 41% 30.03 in 10.0 mi WSW 10.4 mph - N/A   Clear
10:55 PM 57.2 °F 30.2 °F 36% 30.02 in 10.0 mi West 9.2 mph - N/A   Clear
11:56 PM 51.1 °F 32.0 °F 48% 30.03 in 10.0 mi Calm Calm - N/A   Clear